Location: Stockholm
(59.3330°N, 18.0500°E)
Time: 14:37:41
(UTC+01:00)

Envisat - Pass Details

Date: 28 November 2022
Orbit: 763 x 765 km, 98.2° (Epoch: 29 January)

Event Time Altitude Azimuth Distance (km) Brightness Sun altitude
Rises 03:23:15 0° 19° (NNE) 3,250 6.7 -34.9°
Reaches altitude 10° 03:25:48 10° 29° (NNE) 2,319 6.0 -34.6°
Maximum altitude 03:30:24 33° 94° (E) 1,275 4.5 -34.0°
Enters shadow 03:31:14 31° 113° (ESE) 1,322 4.5 -33.9°
